{"data":{"norad_id":58627,"epoch":"2026-05-24T22:15:51.787872Z","epoch_age_seconds":85233,"freshness":"FRESH","line1":"1 58627U 23203K   26144.92768273  .00002029  00000+0  83240-4 0  9992","line2":"2 58627  43.0019 356.3232 0001137 269.5220  90.5502 15.27582709135229","mean_motion":15.27582709,"eccentricity":0.0001137,"inclination_deg":43.0019,"raan_deg":356.3232,"arg_perigee_deg":269.522,"mean_anomaly_deg":90.5502,"bstar":8.324e-5,"rev_number":13522,"period_min":94.266581541936,"perigee_km":482.26086839427,"apogee_km":483.8211002679,"semimajor_km":6861.1779843311,"source":"CELESTRAK","updated_at":"2026-05-25T13:38:18.706755Z"}}